QFA149 NZAA-YSSY

Flight info

Callsign QFA149
Flight time 2h 57m
Altitude 34000
Route AVNA2Q/05R VELMO DCT 38S163E DCT PLUGA DCT RIKNI N774 MARLN MARLN5
Aircraft B738/M-SDE2E3FGHIRWXY/LB1

Departure

Time 2026-05-04 10:39
Airport Auckland International Airport (NZAA)

Arrival

Time 2026-05-04 13:37
Airport Sydney Kingsford Smith International Airport (YSSY)
Time Latitude Longitude Altitude Speed Heading
2026-05-04 10:06 -37.00651 174.78328 25 ft 0 kts 294°
2026-05-04 10:27 -37.00654 174.78336 25 ft 4 kts 294°
2026-05-04 10:27 -37.00664 174.78367 25 ft 4 kts 291°
2026-05-04 10:28 -37.00673 174.78398 25 ft 4 kts 286°
2026-05-04 10:28 -37.00679 174.78431 25 ft 4 kts 272°
2026-05-04 10:28 -37.00680 174.78445 25 ft 4 kts 256°
2026-05-04 10:28 -37.00697 174.78422 25 ft 4 kts 216°
2026-05-04 10:29 -37.00712 174.78411 25 ft 0 kts 208°
2026-05-04 10:32 -37.00757 174.78386 25 ft 10 kts 195°
2026-05-04 10:33 -37.00815 174.78376 25 ft 14 kts 186°
2026-05-04 10:33 -37.00914 174.78361 25 ft 14 kts 183°
2026-05-04 10:33 -37.01004 174.78295 25 ft 11 kts 230°
2026-05-04 10:33 -37.01074 174.78274 25 ft 10 kts 192°
2026-05-04 10:34 -37.01115 174.78241 25 ft 10 kts 226°
2026-05-04 10:34 -37.01149 174.78128 25 ft 11 kts 252°
2026-05-04 10:34 -37.01167 174.78062 25 ft 13 kts 251°
2026-05-04 10:34 -37.01199 174.77946 25 ft 16 kts 251°
2026-05-04 10:35 -37.01236 174.77815 25 ft 16 kts 250°
2026-05-04 10:35 -37.01271 174.77688 25 ft 15 kts 251°
2026-05-04 10:35 -37.01304 174.77567 25 ft 15 kts 250°
2026-05-04 10:35 -37.01337 174.77450 25 ft 14 kts 250°
2026-05-04 10:36 -37.01369 174.77337 25 ft 14 kts 251°
2026-05-04 10:36 -37.01399 174.77222 25 ft 14 kts 251°
2026-05-04 10:36 -37.01439 174.77119 25 ft 13 kts 219°
2026-05-04 10:36 -37.01486 174.77101 25 ft 4 kts 190°
2026-05-04 10:37 -37.01491 174.77100 25 ft 0 kts 190°
2026-05-04 10:37 -37.01504 174.77097 25 ft 5 kts 190°
2026-05-04 10:37 -37.01567 174.77083 25 ft 14 kts 190°
2026-05-04 10:39 -37.00566 174.80857 734 ft 159 kts 70°
2026-05-04 10:39 -37.00195 174.82140 1333 ft 159 kts 71°
2026-05-04 10:39 -36.99838 174.83464 1832 ft 167 kts 72°
2026-05-04 10:40 -36.99447 174.84918 2163 ft 189 kts 72°
2026-05-04 10:40 -36.98995 174.86585 2405 ft 214 kts 71°
2026-05-04 10:40 -36.98488 174.88439 2591 ft 235 kts 71°
2026-05-04 10:40 -36.97950 174.90392 2939 ft 245 kts 71°
2026-05-04 10:41 -36.97385 174.92432 3336 ft 255 kts 71°
2026-05-04 10:41 -36.96783 174.94601 3706 ft 270 kts 71°
2026-05-04 10:41 -36.96161 174.96833 4403 ft 273 kts 71°
2026-05-04 10:41 -36.95533 174.99081 5141 ft 275 kts 71°
2026-05-04 10:42 -36.94895 175.01360 5839 ft 279 kts 71°
2026-05-04 10:42 -36.94250 175.03663 6532 ft 282 kts 71°
2026-05-04 10:42 -36.93930 175.06080 7187 ft 286 kts 97°
2026-05-04 10:42 -36.94600 175.08400 7892 ft 287 kts 125°
2026-05-04 10:43 -36.96038 175.10112 8568 ft 289 kts 150°
2026-05-04 10:44 -37.08329 175.02440 11625 ft 357 kts 249°
2026-05-04 10:45 -37.09220 174.99523 12172 ft 361 kts 249°
2026-05-04 10:45 -37.10108 174.96581 12701 ft 364 kts 249°
2026-05-04 10:45 -37.11002 174.93625 13211 ft 368 kts 249°
2026-05-04 10:45 -37.11920 174.90613 13727 ft 371 kts 249°
2026-05-04 10:46 -37.12847 174.87588 14240 ft 374 kts 249°
2026-05-04 10:46 -37.13789 174.84531 14745 ft 377 kts 249°
2026-05-04 10:46 -37.14742 174.81448 15230 ft 380 kts 249°
2026-05-04 10:46 -37.15706 174.78335 15671 ft 384 kts 249°
2026-05-04 10:47 -37.16678 174.75195 16131 ft 387 kts 249°
2026-05-04 10:47 -37.17641 174.72081 16567 ft 389 kts 249°
2026-05-04 10:47 -37.18625 174.68901 16975 ft 392 kts 249°
2026-05-04 10:47 -37.19615 174.65698 17364 ft 395 kts 249°
2026-05-04 10:49 -37.26695 174.42678 19686 ft 412 kts 249°
2026-05-04 10:49 -37.27739 174.39270 19969 ft 414 kts 249°
2026-05-04 10:50 -37.28776 174.35877 20167 ft 418 kts 249°
2026-05-04 10:51 -37.36130 174.11707 21701 ft 431 kts 249°
2026-05-04 10:52 -37.37196 174.08186 21943 ft 431 kts 249°
2026-05-04 10:52 -37.38263 174.04656 22122 ft 432 kts 249°
2026-05-04 10:52 -37.39335 174.01108 22251 ft 435 kts 249°
2026-05-04 10:54 -37.46887 173.75970 23368 ft 441 kts 249°
2026-05-04 10:54 -37.47951 173.72412 23528 ft 441 kts 249°
2026-05-04 10:56 -37.55558 173.46822 24243 ft 449 kts 249°
2026-05-04 10:56 -37.56649 173.43134 24335 ft 449 kts 249°
2026-05-04 10:56 -37.57740 173.39438 24425 ft 450 kts 249°
2026-05-04 10:57 -37.58833 173.35733 24509 ft 451 kts 249°
2026-05-04 10:57 -37.59927 173.32021 24591 ft 451 kts 249°
2026-05-04 10:57 -37.61019 173.28306 24669 ft 452 kts 249°
2026-05-04 10:57 -37.62112 173.24586 24744 ft 453 kts 249°
2026-05-04 10:58 -37.63205 173.20861 24817 ft 453 kts 249°
2026-05-04 10:58 -37.64297 173.17130 24886 ft 454 kts 249°
2026-05-04 10:58 -37.65394 173.13382 24933 ft 455 kts 250°
2026-05-04 10:58 -37.66488 173.09637 24997 ft 455 kts 250°
2026-05-04 10:59 -37.67580 173.05894 25210 ft 451 kts 250°
2026-05-04 10:59 -37.68659 173.02187 25428 ft 448 kts 250°
2026-05-04 10:59 -37.69729 172.98510 25679 ft 444 kts 250°
2026-05-04 10:59 -37.70775 172.94910 26369 ft 430 kts 250°
2026-05-04 11:00 -37.71780 172.91446 26821 ft 424 kts 250°
2026-05-04 11:01 -37.78807 172.67103 28395 ft 417 kts 250°
2026-05-04 11:02 -37.79796 172.63659 28629 ft 416 kts 250°
2026-05-04 11:02 -37.80781 172.60226 28863 ft 415 kts 250°
2026-05-04 11:05 -37.94134 172.13228 31995 ft 397 kts 250°
2026-05-04 11:06 -37.95062 172.09929 32140 ft 398 kts 250°
2026-05-04 11:06 -37.95991 172.06625 32291 ft 398 kts 250°
2026-05-04 11:06 -37.96919 172.03321 32440 ft 398 kts 250°
2026-05-04 11:06 -37.97847 172.00011 32589 ft 398 kts 250°
2026-05-04 11:08 -38.04265 171.77007 33137 ft 402 kts 250°
2026-05-04 11:10 -38.10895 171.53032 33261 ft 419 kts 250°
2026-05-04 11:12 -38.17708 171.28159 33353 ft 435 kts 251°
2026-05-04 11:12 -38.18704 171.24503 33420 ft 438 kts 251°
2026-05-04 11:12 -38.19701 171.20836 33582 ft 439 kts 251°
2026-05-04 11:12 -38.20687 171.17206 33775 ft 438 kts 251°
2026-05-04 11:13 -38.21680 171.13549 33963 ft 438 kts 251°
2026-05-04 11:13 -38.22673 171.09883 33986 ft 438 kts 251°
2026-05-04 11:13 -38.24640 171.02608 33996 ft 435 kts 251°
2026-05-04 11:14 -38.26574 170.95345 33996 ft 432 kts 254°
2026-05-04 11:16 -38.27152 170.65050 34001 ft 427 kts 270°
2026-05-04 11:16 -38.27121 170.57512 34001 ft 426 kts 270°
2026-05-04 11:17 -38.27091 170.49963 34011 ft 429 kts 270°
2026-05-04 11:19 -38.26947 170.22831 34009 ft 448 kts 270°
2026-05-04 11:19 -38.26920 170.18856 34008 ft 450 kts 270°
2026-05-04 11:19 -38.26863 170.10860 34006 ft 454 kts 270°
2026-05-04 11:20 -38.26799 170.02781 34004 ft 457 kts 270°
2026-05-04 11:20 -38.26729 169.94655 34003 ft 460 kts 270°
2026-05-04 11:22 -38.26406 169.63114 34002 ft 469 kts 270°
2026-05-04 11:23 -38.26307 169.54851 33997 ft 468 kts 270°
2026-05-04 11:24 -38.25982 169.30508 34003 ft 453 kts 271°
2026-05-04 11:25 -38.25924 169.26528 34011 ft 456 kts 271°
2026-05-04 11:25 -38.25802 169.18410 34010 ft 462 kts 271°
2026-05-04 11:27 -38.25165 168.80918 33993 ft 473 kts 271°
2026-05-04 11:28 -38.25006 168.72564 33997 ft 471 kts 271°
2026-05-04 11:28 -38.24844 168.64337 33991 ft 464 kts 271°
2026-05-04 11:29 -38.24679 168.56195 33991 ft 457 kts 271°
2026-05-04 11:29 -38.24510 168.48155 33996 ft 452 kts 271°
2026-05-04 11:33 -38.23210 167.93300 34000 ft 438 kts 271°
2026-05-04 11:33 -38.23006 167.85563 34001 ft 436 kts 271°
2026-05-04 11:34 -38.22798 167.77857 34001 ft 435 kts 271°
2026-05-04 11:34 -38.22585 167.70166 34001 ft 435 kts 272°
2026-05-04 11:35 -38.22370 167.62549 33998 ft 433 kts 272°
2026-05-04 11:35 -38.22148 167.54903 34000 ft 431 kts 272°
2026-05-04 11:36 -38.21923 167.47293 34000 ft 430 kts 272°
2026-05-04 11:36 -38.21693 167.39686 34001 ft 429 kts 272°
2026-05-04 11:37 -38.21459 167.32122 34001 ft 428 kts 272°
2026-05-04 11:37 -38.21220 167.24569 34001 ft 427 kts 272°
2026-05-04 11:38 -38.20980 167.17087 34001 ft 426 kts 272°
2026-05-04 11:38 -38.20732 167.09560 34001 ft 425 kts 272°
2026-05-04 11:39 -38.20481 167.02042 34001 ft 425 kts 272°
2026-05-04 11:41 -38.19567 166.75853 34001 ft 424 kts 272°
2026-05-04 11:41 -38.19295 166.68361 34001 ft 423 kts 272°
2026-05-04 11:42 -38.19018 166.60884 34001 ft 423 kts 272°
2026-05-04 11:42 -38.18737 166.53399 34001 ft 423 kts 272°
2026-05-04 11:43 -38.18453 166.45975 34001 ft 423 kts 272°
2026-05-04 11:43 -38.18162 166.38499 34001 ft 423 kts 272°
2026-05-04 11:44 -38.17867 166.31032 34001 ft 423 kts 272°
2026-05-04 11:44 -38.17567 166.23566 34001 ft 423 kts 272°
2026-05-04 11:45 -38.17262 166.16089 34001 ft 423 kts 272°
2026-05-04 11:45 -38.16955 166.08675 34001 ft 423 kts 272°
2026-05-04 11:46 -38.16641 166.01207 34001 ft 423 kts 272°
2026-05-04 11:46 -38.16322 165.93746 34001 ft 423 kts 273°
2026-05-04 11:47 -38.15999 165.86280 34001 ft 423 kts 273°
2026-05-04 11:47 -38.15673 165.78870 34001 ft 423 kts 273°
2026-05-04 11:48 -38.15340 165.71412 34001 ft 423 kts 273°
2026-05-04 11:48 -38.15002 165.63949 34001 ft 423 kts 273°
2026-05-04 11:49 -38.14660 165.56489 34001 ft 423 kts 273°
2026-05-04 11:49 -38.14313 165.49034 34001 ft 423 kts 273°
2026-05-04 11:50 -38.13964 165.41627 34001 ft 423 kts 273°
2026-05-04 11:50 -38.13608 165.34177 34001 ft 423 kts 273°
2026-05-04 11:51 -38.13247 165.26727 34001 ft 423 kts 273°
2026-05-04 11:51 -38.12882 165.19269 34001 ft 423 kts 273°
2026-05-04 11:52 -38.12511 165.11811 34001 ft 423 kts 273°
2026-05-04 11:52 -38.12136 165.04358 34001 ft 423 kts 273°
2026-05-04 11:53 -38.11755 164.96896 34001 ft 423 kts 273°
2026-05-04 11:53 -38.11373 164.89492 34001 ft 423 kts 273°
2026-05-04 11:55 -38.09789 164.59714 34001 ft 423 kts 274°
2026-05-04 11:56 -38.09381 164.52256 34001 ft 423 kts 274°
2026-05-04 11:56 -38.08968 164.44812 34001 ft 423 kts 274°
2026-05-04 11:57 -38.08551 164.37365 34001 ft 423 kts 274°
2026-05-04 11:57 -38.08128 164.29913 34001 ft 423 kts 274°
2026-05-04 11:58 -38.07701 164.22459 34002 ft 423 kts 274°
2026-05-04 11:58 -38.07269 164.15004 34001 ft 423 kts 274°
2026-05-04 11:59 -38.06835 164.07608 34001 ft 423 kts 274°
2026-05-04 11:59 -38.06394 164.00161 34001 ft 423 kts 274°
2026-05-04 12:00 -38.05948 163.92713 34001 ft 423 kts 274°
2026-05-04 12:00 -38.05497 163.85265 34001 ft 423 kts 274°
2026-05-04 12:01 -38.05042 163.77818 34001 ft 423 kts 274°
2026-05-04 12:02 -38.03414 163.51805 34002 ft 423 kts 274°
2026-05-04 12:03 -38.02937 163.44363 34001 ft 423 kts 274°
2026-05-04 12:03 -38.02456 163.36917 34001 ft 423 kts 274°
2026-05-04 12:04 -38.01970 163.29478 34001 ft 423 kts 274°
2026-05-04 12:04 -38.01480 163.22040 34001 ft 423 kts 274°
2026-05-04 12:05 -38.00984 163.14586 34001 ft 423 kts 274°
2026-05-04 12:05 -38.00484 163.07139 34002 ft 423 kts 275°
2026-05-04 12:06 -37.99910 162.99747 33996 ft 424 kts 280°
2026-05-04 12:06 -37.98298 162.92563 33999 ft 424 kts 287°
2026-05-04 12:07 -37.96486 162.85456 34001 ft 424 kts 287°
2026-05-04 12:07 -37.94686 162.78339 34001 ft 424 kts 287°
2026-05-04 12:08 -37.92906 162.71205 34007 ft 426 kts 287°
2026-05-04 12:08 -37.91419 162.65218 34010 ft 432 kts 287°
2026-05-04 12:09 -37.89600 162.57899 34009 ft 439 kts 287°
2026-05-04 12:09 -37.87763 162.50527 34011 ft 444 kts 287°
2026-05-04 12:10 -37.85882 162.43007 34009 ft 450 kts 287°
2026-05-04 12:10 -37.83981 162.35427 34007 ft 454 kts 287°
2026-05-04 12:11 -37.82053 162.27769 34005 ft 458 kts 287°
2026-05-04 12:11 -37.80108 162.20062 34003 ft 462 kts 287°
2026-05-04 12:12 -37.78142 162.12301 34002 ft 465 kts 287°
2026-05-04 12:12 -37.76171 162.04540 34002 ft 468 kts 287°
2026-05-04 12:14 -37.68094 161.72991 34002 ft 475 kts 288°
2026-05-04 12:15 -37.66043 161.65043 34002 ft 476 kts 288°
2026-05-04 12:15 -37.63996 161.57136 34002 ft 477 kts 288°
2026-05-04 12:16 -37.61924 161.49155 34002 ft 478 kts 288°
2026-05-04 12:16 -37.59843 161.41168 34001 ft 479 kts 288°
2026-05-04 12:17 -37.57752 161.33163 34002 ft 480 kts 288°
2026-05-04 12:17 -37.55669 161.25219 34001 ft 480 kts 288°
2026-05-04 12:18 -37.53566 161.17220 34001 ft 481 kts 288°
2026-05-04 12:18 -37.51453 161.09210 34001 ft 481 kts 288°
2026-05-04 12:19 -37.49336 161.01206 34002 ft 482 kts 288°
2026-05-04 12:19 -37.47210 160.93196 34002 ft 482 kts 288°
2026-05-04 12:20 -37.45090 160.85238 34001 ft 482 kts 288°
2026-05-04 12:20 -37.42951 160.77230 34001 ft 483 kts 288°
2026-05-04 12:21 -37.40805 160.69217 34001 ft 483 kts 288°
2026-05-04 12:21 -37.38651 160.61202 34002 ft 483 kts 288°
2026-05-04 12:22 -37.36494 160.53199 34001 ft 483 kts 288°
2026-05-04 12:22 -37.34346 160.45256 34001 ft 483 kts 288°
2026-05-04 12:23 -37.32176 160.37255 34001 ft 483 kts 288°
2026-05-04 12:23 -37.30002 160.29263 34001 ft 484 kts 288°
2026-05-04 12:24 -37.27819 160.21263 34001 ft 484 kts 289°
2026-05-04 12:24 -37.25633 160.13275 34001 ft 484 kts 289°
2026-05-04 12:25 -37.23442 160.05294 34001 ft 484 kts 289°
2026-05-04 12:25 -37.21242 159.97305 34001 ft 484 kts 289°
2026-05-04 12:26 -37.19051 159.89374 34001 ft 484 kts 289°
2026-05-04 12:26 -37.16843 159.81404 34001 ft 484 kts 289°
2026-05-04 12:27 -37.14628 159.73431 34001 ft 484 kts 289°
2026-05-04 12:27 -37.12406 159.65458 34001 ft 484 kts 289°
2026-05-04 12:28 -37.10184 159.57507 34001 ft 484 kts 289°
2026-05-04 12:28 -37.07949 159.49537 34001 ft 484 kts 289°
2026-05-04 12:29 -37.05712 159.41581 34002 ft 484 kts 289°
2026-05-04 12:29 -37.03483 159.33675 34001 ft 484 kts 289°
2026-05-04 12:30 -37.01234 159.25723 34001 ft 484 kts 289°
2026-05-04 12:30 -36.98979 159.17776 34001 ft 484 kts 289°
2026-05-04 12:31 -36.96720 159.09834 34001 ft 484 kts 289°
2026-05-04 12:31 -36.94468 159.01943 34001 ft 484 kts 289°
2026-05-04 12:32 -36.91059 158.90042 34001 ft 484 kts 289°
2026-05-04 12:33 -36.88782 158.82119 34001 ft 484 kts 289°
2026-05-04 12:33 -36.86497 158.74194 34001 ft 484 kts 289°
2026-05-04 12:34 -36.84211 158.66287 34001 ft 484 kts 289°
2026-05-04 12:34 -36.81931 158.58420 34001 ft 484 kts 289°
2026-05-04 12:35 -36.79632 158.50516 34001 ft 484 kts 289°
2026-05-04 12:35 -36.77329 158.42618 34002 ft 484 kts 290°
2026-05-04 12:36 -36.75019 158.34718 34001 ft 484 kts 290°
2026-05-04 12:36 -36.72704 158.26825 34001 ft 485 kts 290°
2026-05-04 12:37 -36.70382 158.18930 34001 ft 485 kts 290°
2026-05-04 12:37 -36.68071 158.11096 34001 ft 485 kts 290°
2026-05-04 12:38 -36.65740 158.03217 34001 ft 485 kts 290°
2026-05-04 12:38 -36.63402 157.95333 34001 ft 485 kts 290°
2026-05-04 12:39 -36.61058 157.87453 34001 ft 485 kts 290°
2026-05-04 12:39 -36.58721 157.79620 34001 ft 485 kts 290°
2026-05-04 12:40 -36.56369 157.71757 34001 ft 485 kts 290°
2026-05-04 12:40 -36.54008 157.63886 34001 ft 485 kts 290°
2026-05-04 12:41 -36.51643 157.56026 34001 ft 485 kts 290°
2026-05-04 12:41 -36.49275 157.48176 34001 ft 485 kts 290°
2026-05-04 12:42 -36.46919 157.40386 34001 ft 485 kts 290°
2026-05-04 12:42 -36.44539 157.32543 34001 ft 485 kts 290°
2026-05-04 12:43 -36.42155 157.24704 34001 ft 485 kts 290°
2026-05-04 12:43 -36.39764 157.16866 34001 ft 485 kts 290°
2026-05-04 12:44 -36.37386 157.09089 34001 ft 485 kts 290°
2026-05-04 12:44 -36.34983 157.01255 34001 ft 485 kts 290°
2026-05-04 12:45 -36.32578 156.93435 34001 ft 485 kts 290°
2026-05-04 12:45 -36.30179 156.85657 34001 ft 485 kts 290°
2026-05-04 12:46 -36.27766 156.77851 34001 ft 485 kts 290°
2026-05-04 12:46 -36.25343 156.70038 34001 ft 485 kts 290°
2026-05-04 12:47 -36.22919 156.62242 34001 ft 485 kts 291°
2026-05-04 12:47 -36.20488 156.54444 34001 ft 485 kts 291°
2026-05-04 12:48 -36.18050 156.46645 34002 ft 485 kts 291°
2026-05-04 12:48 -36.15623 156.38899 34001 ft 485 kts 291°
2026-05-04 12:49 -36.13178 156.31120 34001 ft 485 kts 291°
2026-05-04 12:49 -36.10724 156.23333 34001 ft 485 kts 291°
2026-05-04 12:50 -36.08265 156.15549 34001 ft 485 kts 291°
2026-05-04 12:50 -36.05805 156.07783 34002 ft 485 kts 291°
2026-05-04 12:51 -36.03338 156.00018 34001 ft 485 kts 291°
2026-05-04 12:51 -36.00883 155.92310 34001 ft 485 kts 291°
2026-05-04 12:52 -35.98404 155.84547 34001 ft 485 kts 291°
2026-05-04 12:52 -35.95921 155.76790 34001 ft 485 kts 291°
2026-05-04 12:53 -35.93433 155.69042 34001 ft 485 kts 291°
2026-05-04 12:53 -35.90942 155.61301 34001 ft 485 kts 291°
2026-05-04 12:54 -35.88461 155.53614 34001 ft 485 kts 291°
2026-05-04 12:54 -35.85955 155.45865 34002 ft 485 kts 291°
2026-05-04 12:55 -35.83444 155.38125 34001 ft 485 kts 291°
2026-05-04 12:55 -35.80927 155.30388 34001 ft 485 kts 291°
2026-05-04 12:56 -35.78427 155.22721 34001 ft 485 kts 291°
2026-05-04 12:56 -35.75904 155.15003 34001 ft 485 kts 291°
2026-05-04 12:57 -35.73376 155.07289 34001 ft 485 kts 291°
2026-05-04 12:57 -35.70842 154.99576 34002 ft 485 kts 291°
2026-05-04 12:58 -35.68731 154.93167 34001 ft 485 kts 291°
2026-05-04 12:58 -35.65778 154.84222 34001 ft 485 kts 292°
2026-05-04 12:59 -35.63234 154.76535 34001 ft 486 kts 292°
2026-05-04 12:59 -35.61001 154.70144 33994 ft 486 kts 297°
2026-05-04 13:00 -35.57095 154.63449 34010 ft 486 kts 310°
2026-05-04 13:00 -35.52636 154.57201 33997 ft 486 kts 311°
2026-05-04 13:01 -35.48172 154.50945 34001 ft 486 kts 310°
2026-05-04 13:01 -35.43743 154.44666 34001 ft 486 kts 310°
2026-05-04 13:02 -35.39357 154.38418 34001 ft 486 kts 310°
2026-05-04 13:02 -35.34937 154.32126 34001 ft 486 kts 310°
2026-05-04 13:03 -35.30511 154.25841 34001 ft 486 kts 310°
2026-05-04 13:03 -35.26089 154.19576 34001 ft 486 kts 310°
2026-05-04 13:04 -35.21658 154.13310 34001 ft 486 kts 310°
2026-05-04 13:04 -35.17250 154.07089 34001 ft 486 kts 310°
2026-05-04 13:05 -35.12814 154.00838 34001 ft 487 kts 310°
2026-05-04 13:05 -35.08377 153.94598 34001 ft 487 kts 310°
2026-05-04 13:06 -35.03932 153.88357 34001 ft 487 kts 310°
2026-05-04 13:06 -34.99488 153.82130 34001 ft 487 kts 310°
2026-05-04 13:07 -34.95038 153.75904 34001 ft 487 kts 310°
2026-05-04 13:07 -34.90585 153.69686 34001 ft 487 kts 311°
2026-05-04 13:08 -34.86157 153.63515 34001 ft 487 kts 311°
2026-05-04 13:08 -34.81701 153.57315 34001 ft 487 kts 311°
2026-05-04 13:09 -34.77239 153.51118 34001 ft 487 kts 311°
2026-05-04 13:09 -34.72776 153.44930 33986 ft 487 kts 311°
2026-05-04 13:09 -34.70520 153.41807 33610 ft 495 kts 311°
2026-05-04 13:10 -34.68232 153.38641 33201 ft 503 kts 311°
2026-05-04 13:10 -34.65899 153.35417 32742 ft 512 kts 311°
2026-05-04 13:10 -34.63530 153.32146 32268 ft 519 kts 311°
2026-05-04 13:10 -34.61126 153.28829 31828 ft 524 kts 311°
2026-05-04 13:11 -34.58729 153.25526 31829 ft 519 kts 311°
2026-05-04 13:11 -34.54012 153.19036 31728 ft 499 kts 311°
2026-05-04 13:11 -34.51751 153.15929 31613 ft 482 kts 311°
2026-05-04 13:12 -34.49590 153.12962 31516 ft 468 kts 311°
2026-05-04 13:12 -34.47464 153.10047 31429 ft 455 kts 311°
2026-05-04 13:12 -34.45379 153.07205 31257 ft 443 kts 311°
2026-05-04 13:12 -34.43378 153.04466 30892 ft 427 kts 311°
2026-05-04 13:13 -34.41424 153.01788 30146 ft 422 kts 311°
2026-05-04 13:13 -34.39485 152.99129 29286 ft 419 kts 311°
2026-05-04 13:13 -34.37558 152.96491 28500 ft 415 kts 311°
2026-05-04 13:13 -34.35659 152.93895 27778 ft 410 kts 311°
2026-05-04 13:14 -34.33782 152.91332 27099 ft 404 kts 311°
2026-05-04 13:14 -34.31932 152.88808 26435 ft 398 kts 311°
2026-05-04 13:14 -34.30106 152.86320 25759 ft 392 kts 311°
2026-05-04 13:14 -34.28306 152.83869 25080 ft 387 kts 311°
2026-05-04 13:15 -34.26528 152.81450 24492 ft 380 kts 311°
2026-05-04 13:15 -34.24798 152.79097 24075 ft 368 kts 311°
2026-05-04 13:15 -34.23143 152.76849 23694 ft 357 kts 311°
2026-05-04 13:15 -34.21509 152.74630 23327 ft 347 kts 311°
2026-05-04 13:16 -34.19921 152.72474 22985 ft 339 kts 311°
2026-05-04 13:16 -34.18368 152.70367 22651 ft 333 kts 311°
2026-05-04 13:16 -34.16822 152.68270 22334 ft 338 kts 311°
2026-05-04 13:16 -34.15219 152.66097 22011 ft 354 kts 311°
2026-05-04 13:17 -34.13551 152.63837 21641 ft 360 kts 311°
2026-05-04 13:17 -34.11895 152.61597 21265 ft 355 kts 311°
2026-05-04 13:17 -34.10274 152.59405 20903 ft 352 kts 310°
2026-05-04 13:17 -34.08878 152.57013 20531 ft 348 kts 296°
2026-05-04 13:18 -34.08016 152.54313 20187 ft 343 kts 284°
2026-05-04 13:18 -34.07636 152.51489 19843 ft 339 kts 276°
2026-05-04 13:18 -34.07383 152.48668 19490 ft 336 kts 275°
2026-05-04 13:18 -34.07148 152.45871 19144 ft 334 kts 275°
2026-05-04 13:19 -34.06912 152.43102 18804 ft 331 kts 275°
2026-05-04 13:19 -34.06671 152.40353 18466 ft 328 kts 276°
2026-05-04 13:19 -34.06425 152.37629 18131 ft 325 kts 276°
2026-05-04 13:19 -34.06176 152.34923 17798 ft 323 kts 276°
2026-05-04 13:20 -34.05928 152.32251 17470 ft 320 kts 276°
2026-05-04 13:20 -34.05681 152.29621 17146 ft 318 kts 276°
2026-05-04 13:20 -34.05433 152.26983 16820 ft 315 kts 276°
2026-05-04 13:20 -34.05185 152.24366 16497 ft 313 kts 276°
2026-05-04 13:21 -34.04939 152.21770 16176 ft 311 kts 276°
2026-05-04 13:21 -34.04694 152.19190 15857 ft 308 kts 276°
2026-05-04 13:21 -34.04450 152.16622 15538 ft 306 kts 276°
2026-05-04 13:21 -34.04207 152.14077 15222 ft 304 kts 276°
2026-05-04 13:22 -34.03966 152.11552 14908 ft 302 kts 276°
2026-05-04 13:22 -34.03725 152.09041 14595 ft 300 kts 276°
2026-05-04 13:22 -34.03485 152.06555 14285 ft 298 kts 276°
2026-05-04 13:22 -34.03242 152.04115 13982 ft 296 kts 276°
2026-05-04 13:23 -34.02992 152.01650 13677 ft 295 kts 276°
2026-05-04 13:23 -34.02739 151.99173 13376 ft 299 kts 276°
2026-05-04 13:23 -34.02484 151.96666 13066 ft 304 kts 276°
2026-05-04 13:23 -34.02225 151.94132 12744 ft 304 kts 276°
2026-05-04 13:24 -34.01968 151.91614 12418 ft 301 kts 276°
2026-05-04 13:24 -34.01712 151.89113 12100 ft 299 kts 276°
2026-05-04 13:24 -34.01459 151.86638 11786 ft 296 kts 276°
2026-05-04 13:25 -34.00961 151.81789 11171 ft 291 kts 276°
2026-05-04 13:25 -34.00712 151.79372 10865 ft 289 kts 276°
2026-05-04 13:25 -34.00465 151.76978 10562 ft 287 kts 276°
2026-05-04 13:25 -34.00221 151.74595 10221 ft 286 kts 276°
2026-05-04 13:26 -33.99982 151.72268 10053 ft 279 kts 276°
2026-05-04 13:26 -33.99746 151.69976 9864 ft 273 kts 276°
2026-05-04 13:26 -33.99512 151.67706 9575 ft 272 kts 276°
2026-05-04 13:26 -33.99280 151.65449 9299 ft 270 kts 276°
2026-05-04 13:27 -33.99048 151.63214 9023 ft 268 kts 276°
2026-05-04 13:27 -33.98818 151.60990 8748 ft 267 kts 276°
2026-05-04 13:27 -33.98588 151.58777 8473 ft 265 kts 276°
2026-05-04 13:27 -33.98359 151.56580 8200 ft 264 kts 276°
2026-05-04 13:28 -33.98131 151.54384 7931 ft 264 kts 276°
2026-05-04 13:28 -33.97902 151.52190 7654 ft 263 kts 277°
2026-05-04 13:28 -33.97675 151.50014 7381 ft 261 kts 276°
2026-05-04 13:28 -33.97452 151.47871 7113 ft 260 kts 277°
2026-05-04 13:29 -33.97226 151.45715 6843 ft 258 kts 277°
2026-05-04 13:29 -33.97001 151.43573 6574 ft 257 kts 277°
2026-05-04 13:29 -33.96777 151.41446 6306 ft 255 kts 277°
2026-05-04 13:29 -33.96717 151.39324 6017 ft 254 kts 258°
2026-05-04 13:30 -33.97494 151.37455 5776 ft 252 kts 228°
2026-05-04 13:30 -33.98868 151.36118 5552 ft 259 kts 212°
2026-05-04 13:30 -34.00447 151.35011 5287 ft 265 kts 209°
2026-05-04 13:30 -34.02064 151.33935 5009 ft 265 kts 209°
2026-05-04 13:31 -34.03671 151.32861 4731 ft 262 kts 209°
2026-05-04 13:31 -34.05234 151.31801 4466 ft 260 kts 210°
2026-05-04 13:31 -34.06795 151.30729 4203 ft 257 kts 210°
2026-05-04 13:31 -34.08334 151.29664 3945 ft 254 kts 210°
2026-05-04 13:32 -34.09865 151.28602 3690 ft 252 kts 210°
2026-05-04 13:32 -34.11377 151.27551 3438 ft 249 kts 211°
2026-05-04 13:32 -34.12630 151.26163 3171 ft 246 kts 242°
2026-05-04 13:32 -34.12888 151.24228 3102 ft 230 kts 282°
2026-05-04 13:33 -34.12131 151.22628 2968 ft 217 kts 319°
2026-05-04 13:33 -34.10847 151.21800 2878 ft 206 kts 343°
2026-05-04 13:33 -34.09477 151.21428 2641 ft 198 kts 348°
2026-05-04 13:33 -34.08126 151.21106 2394 ft 199 kts 348°
2026-05-04 13:34 -34.06763 151.20760 2135 ft 198 kts 347°
2026-05-04 13:34 -34.05477 151.20426 1880 ft 177 kts 347°
2026-05-04 13:34 -34.04339 151.20130 1629 ft 158 kts 347°
2026-05-04 13:34 -34.03313 151.19862 1433 ft 149 kts 347°
2026-05-04 13:35 -34.02305 151.19599 1242 ft 148 kts 347°
2026-05-04 13:35 -34.00262 151.19067 854 ft 154 kts 347°
2026-05-04 13:35 -33.99209 151.18792 639 ft 154 kts 347°
2026-05-04 13:36 -33.98173 151.18524 429 ft 152 kts 347°
2026-05-04 13:36 -33.97144 151.18251 238 ft 152 kts 346°
2026-05-04 13:36 -33.96112 151.17982 49 ft 151 kts 347°
2026-05-04 13:36 -33.95182 151.17740 27 ft 114 kts 348°
2026-05-04 13:37 -33.94727 151.17622 28 ft 40 kts 346°
2026-05-04 13:37 -33.94546 151.17548 29 ft 18 kts 334°
2026-05-04 13:37 -33.94440 151.17475 29 ft 18 kts 324°
2026-05-04 13:37 -33.94381 151.17416 29 ft 14 kts 317°
2026-05-04 13:38 -33.94300 151.17327 29 ft 11 kts 319°
2026-05-04 13:38 -33.94230 151.17292 28 ft 12 kts 346°
2026-05-04 13:38 -33.94138 151.17266 27 ft 15 kts 348°
2026-05-04 13:38 -33.94050 151.17243 28 ft 10 kts 348°
2026-05-04 13:39 -33.93990 151.17211 28 ft 10 kts 305°
2026-05-04 13:39 -33.93980 151.17125 29 ft 11 kts 300°
2026-05-04 13:39 -33.93935 151.17094 29 ft 1 kts 351°
2026-05-04 13:39 -33.93922 151.17091 29 ft 3 kts 351°
2026-05-04 13:40 -33.93901 151.17069 29 ft 5 kts 288°
2026-05-04 13:40 -33.93914 151.17022 29 ft 7 kts 248°
2026-05-04 13:40 -33.93924 151.16984 29 ft 0 kts 254°
2026-05-04 13:40 -33.93924 151.16983 29 ft 0 kts 254°